Total_Precipitation_Accumulation
1.14 1.14 1.19 1.17 1.22 1.32 1.41 1.37 1.41 1.47 1.52 1.46 1.37 1.33 1.23 1.15 1.13 1.16 1.15 1.25 1.26 1.24 1.29 1.32 1.37 1.49 1.64 1.68 1.71 1.77 1.97 2.13 2.04 1.93 1.78 1.64 1.50 1.35 1.18 1.16 1.19 1.12 0.93
1.06 1.10 1.16 1.20 1.18 1.15 1.19 1.20 1.23 1.26 1.24 1.21 1.19 1.25 1.27 1.23 1.19 1.15 1.11 1.10 1.15 1.18 1.22 1.30 1.34 1.47 1.60 1.57 1.66 1.73 1.90 2.11 2.19 2.32 2.35 2.09 1.80 1.56 1.44 1.28 1.03 0.94 0.95
1.03 1.06 1.13 1.11 1.07 1.10 1.21 1.23 1.20 1.18 1.18 1.16 1.14 1.14 1.13 1.19 1.30 1.32 1.28 1.27 1.29 1.21 1.25 1.32 1.27 1.30 1.39 1.42 1.54 1.67 1.82 1.97 2.15 2.24 2.36 2.17 1.98 1.68 1.68 1.48 1.22 1.16 0.93
0.92 1.05 1.19 1.24 1.25 1.29 1.30 1.29 1.25 1.19 1.21 1.21 1.14 1.11 1.10 1.09 1.15 1.28 1.32 1.30 1.26 1.20 1.19 1.17 1.11 1.11 1.20 1.29 1.35 1.52 1.68 1.85 1.97 1.99 2.10 2.16 2.17 2.13 2.07 1.85 1.67 1.47 1.20
0.96 1.10 1.23 1.26 1.26 1.27 1.24 1.28 1.27 1.19 1.15 1.22 1.13 1.08 1.09 1.11 1.06 1.08 1.17 1.17 1.15 1.10 1.10 1.03 0.90 0.90 0.94 0.99 1.04 1.29 1.49 1.64 1.78 1.87 1.97 2.14 2.25 2.38 2.24 2.11 1.98 1.84 1.58
0.92 1.01 1.06 1.14 1.20 1.16 1.11 1.09 1.10 1.13 1.12 1.13 1.08 1.07 1.03 0.88 0.89 0.88 0.88 0.93 0.98 1.00 1.02 1.02 0.90 0.77 0.73 0.77 0.80 0.92 1.11 1.28 1.50 1.75 1.90 2.12 2.22 2.20 2.31 2.28 2.20 2.05 1.91
0.86 0.89 0.96 1.10 1.17 1.12 1.01 1.02 1.06 1.07 1.08 1.06 1.01 1.00 0.99 0.92 0.77 0.69 0.67 0.77 0.88 0.90 0.94 0.97 0.82 0.72 0.72 0.67 0.73 0.79 0.83 0.89 1.02 1.34 1.62 1.76 1.79 1.80 2.03 2.20 2.20 2.12 2.08
0.87 0.93 0.98 1.11 1.18 1.16 1.10 1.04 1.03 1.02 1.03 1.06 1.01 0.98 1.03 0.95 0.79 0.66 0.57 0.56 0.69 0.78 0.81 0.84 0.85 0.87 0.79 0.76 0.76 0.79 0.76 0.76 0.78 0.84 1.00 1.15 1.32 1.48 1.70 1.98 2.22 2.19 2.20
0.83 0.94 1.05 1.19 1.22 1.20 1.19 1.14 1.12 1.09 1.05 1.04 1.03 1.03 1.03 1.02 0.85 0.67 0.60 0.63 0.76 0.79 0.80 0.80 0.85 0.91 0.85 0.69 0.68 0.76 0.80 0.82 0.71 0.71 0.73 0.84 0.97 1.11 1.30 1.55 1.82 2.11 2.36
0.86 0.96 1.07 1.16 1.25 1.24 1.27 1.29 1.24 1.21 1.13 1.06 1.09 1.12 1.09 1.11 0.90 0.63 0.56 0.66 0.85 0.90 0.97 0.94 0.82 0.75 0.71 0.56 0.59 0.72 0.74 0.75 0.69 0.68 0.69 0.70 0.74 0.88 1.00 1.21 1.41 1.66 1.91
0.91 1.01 1.14 1.26 1.28 1.28 1.34 1.37 1.33 1.29 1.29 1.20 1.13 1.14 1.17 1.08 0.86 0.60 0.53 0.61 0.82 0.97 0.99 0.99 0.89 0.66 0.56 0.51 0.49 0.56 0.63 0.61 0.66 0.74 0.81 0.83 0.83 0.88 0.94 1.02 1.24 1.39 1.46
1.00 1.09 1.23 1.37 1.22 1.19 1.39 1.43 1.41 1.43 1.43 1.37 1.31 1.22 1.21 1.17 0.90 0.70 0.60 0.61 0.73 0.93 1.07 1.05 0.90 0.71 0.61 0.55 0.46 0.45 0.44 0.43 0.52 0.66 0.75 0.80 0.81 0.82 0.89 1.00 1.16 1.33 1.46
1.13 1.22 1.26 1.30 1.40 1.46 1.47 1.49 1.48 1.45 1.45 1.40 1.38 1.32 1.31 1.34 1.23 0.90 0.77 0.72 0.75 0.84 0.92 0.99 0.89 0.66 0.57 0.56 0.53 0.46 0.40 0.40 0.50 0.58 0.64 0.71 0.73 0.77 0.89 1.06 1.24 1.35 1.38
1.33 1.37 1.38 1.38 1.43 1.56 1.68 1.63 1.54 1.44 1.46 1.48 1.44 1.46 1.45 1.44 1.35 1.13 0.96 0.85 0.81 0.79 0.80 0.80 0.81 0.72 0.60 0.61 0.63 0.54 0.47 0.52 0.57 0.57 0.62 0.69 0.75 0.83 0.96 1.04 1.16 1.31 1.41
1.51 1.49 1.49 1.50 1.55 1.60 1.61 1.58 1.53 1.45 1.37 1.43 1.46 1.47 1.45 1.40 1.27 1.16 1.09 1.04 0.97 0.90 0.85 0.92 0.91 0.94 0.85 0.82 0.84 0.79 0.75 0.78 0.76 0.71 0.71 0.75 0.81 0.87 0.92 1.02 1.13 1.21 1.29
1.76 1.62 1.58 1.58 1.62 1.61 1.61 1.44 1.23 1.16 1.11 1.07 1.12 1.12 1.09 1.04 0.98 0.93 0.93 0.91 0.88 0.87 0.83 0.95 1.06 1.08 1.06 1.06 1.06 1.03 1.02 0.98 0.97 0.98 0.94 0.89 0.91 0.95 0.96 1.01 1.13 1.20 1.19
1.90 1.83 1.68 1.60 1.57 1.54 1.56 1.56 1.45 1.28 1.22 1.09 0.96 0.90 0.90 0.84 0.81 0.79 0.81 0.84 0.85 0.85 0.86 0.98 1.13 1.17 1.18 1.19 1.14 1.10 1.12 1.08 1.08 1.10 1.09 1.08 1.09 1.12 1.10 1.09 1.16 1.24 1.21
1.80 1.76 1.67 1.60 1.52 1.47 1.47 1.49 1.45 1.44 1.43 1.31 1.11 0.98 0.87 0.76 0.72 0.73 0.80 0.86 0.88 0.86 0.95 1.10 1.25 1.24 1.26 1.26 1.19 1.14 1.15 1.11 1.11 1.12 1.12 1.11 1.13 1.18 1.20 1.16 1.17 1.23 1.23
1.69 1.59 1.54 1.53 1.56 1.57 1.56 1.57 1.55 1.55 1.55 1.53 1.34 1.16 0.99 0.80 0.72 0.75 0.78 0.82 0.92 1.01 1.09 1.20 1.22 1.22 1.25 1.23 1.18 1.16 1.20 1.17 1.14 1.16 1.13 1.13 1.13 1.22 1.24 1.21 1.16 1.19 1.16
1.73 1.64 1.59 1.53 1.52 1.61 1.69 1.62 1.59 1.65 1.62 1.54 1.45 1.23 0.99 0.88 0.86 0.88 0.84 0.87 0.97 1.03 1.06 1.08 1.06 1.06 1.09 1.11 1.13 1.17 1.23 1.21 1.19 1.18 1.12 1.10 1.11 1.16 1.18 1.18 1.15 1.13 1.13
1.54 1.48 1.42 1.32 1.30 1.37 1.48 1.52 1.53 1.63 1.60 1.49 1.36 1.20 0.99 0.85 0.91 0.96 0.97 0.95 0.97 1.00 1.00 1.02 1.01 0.98 0.96 1.01 1.05 1.08 1.12 1.14 1.10 1.07 1.04 1.04 1.04 1.10 1.08 1.06 1.07 1.05 1.05
1.47 1.44 1.34 1.27 1.27 1.31 1.36 1.41 1.50 1.56 1.52 1.44 1.27 1.08 0.97 0.87 0.87 0.88 0.86 0.84 0.84 0.87 0.89 0.97 1.01 0.98 0.96 1.00 1.04 1.03 1.01 0.99 0.97 0.95 0.93 0.92 0.95 1.01 1.01 1.02 1.06 1.05 1.04
1.52 1.49 1.48 1.44 1.34 1.37 1.39 1.44 1.50 1.44 1.38 1.38 1.28 1.13 1.03 1.02 0.93 0.87 0.82 0.79 0.77 0.79 0.80 0.84 0.87 0.87 0.87 0.88 0.91 0.91 0.87 0.85 0.83 0.78 0.80 0.83 0.85 0.91 0.94 0.95 1.02 1.05 1.02
1.50 1.49 1.45 1.38 1.32 1.30 1.33 1.42 1.44 1.33 1.23 1.22 1.18 1.07 1.03 1.03 0.94 0.85 0.75 0.71 0.74 0.73 0.72 0.73 0.71 0.68 0.70 0.73 0.77 0.78 0.75 0.72 0.71 0.73 0.74 0.78 0.80 0.81 0.84 0.87 0.93 0.97 0.98
1.45 1.46 1.45 1.38 1.30 1.20 1.16 1.19 1.19 1.14 1.06 1.03 1.04 1.03 1.03 0.96 0.88 0.79 0.72 0.75 0.78 0.76 0.68 0.65 0.65 0.65 0.64 0.64 0.66 0.68 0.71 0.71 0.72 0.68 0.67 0.71 0.74 0.79 0.80 0.84 0.92 0.99 0.98
1.33 1.32 1.28 1.20 1.10 1.03 1.00 1.01 0.98 0.91 0.87 0.85 0.86 0.88 0.85 0.82 0.79 0.73 0.67 0.67 0.67 0.66 0.62 0.58 0.59 0.61 0.62 0.59 0.57 0.56 0.56 0.55 0.59 0.60 0.57 0.58 0.68 0.76 0.78 0.75 0.75 0.85 0.88